Regional Weather Roundup
Issued by NWS

Home | Current Version | Previous Version | Text Only | Print | Product List | Glossary Off
Versions: 1 2 3 4 5 6 7 8 9 10 11 12 13 14 15 16 17 18 19 20 21 22 23 24 25 26 27 28 29 30 31 32 33 34 35 36 37 38 39 40 41 42 43 44 45 46 47 48 49 50

000
ASUS43 KMKX 200421
RWRWI

WISCONSIN REGIONAL WEATHER ROUNDUP
NATIONAL WEATHER SERVICE MILWAUKEE/SULLIVAN WI
1000 PM CST SUN FEB 19 2017

NOTE: "FAIR" INDICATES FEW OR NO CLOUDS BELOW 12,000 FEET WITH NO
SIGNIFICANT WEATHER AND/OR OBSTRUCTIONS TO VISIBILITY.

WIZ001-002-006>008-014>016-023>028-200500-
NORTHWEST WISCONSIN

CITY           SKY/WX    TMP DP  RH WIND       PRES   REMARKS
SUPERIOR ARPT  CLOUDY    35  33  93 NE8G20    29.99R WCI  28
ASHLAND        PTCLDY    32  30  92 NE5       29.99S WCI  27
HAYWARD        PTCLDY    51  30  44 S14G22    29.95S
SIREN          PTCLDY    51  32  48 S13       29.91R
CUMBERLAND     CLOUDY    43  32  65 SE8       29.94R
RICE LAKE      CLOUDY    47  32  55 SE12      29.96F
CHETEK         CLOUDY    46  32  58 SE8       29.95F
LADYSMITH      CLOUDY    46  32  58 E7        30.00S
EAU CLAIRE     CLOUDY    51  34  52 SE7       29.96R
MENOMONIE      PTCLDY    43  33  67 SE9       29.95F
NEW RICHMOND   CLOUDY    49  35  57 SE10G16   29.90S
OSCEOLA        CLOUDY    49  35  60 SE8       29.93R
$$

WIZ003>005-009-010-017-018-200500-
NORTH CENTRAL WISCONSIN

CITY           SKY/WX    TMP DP  RH WIND       PRES   REMARKS
MANITOWISH WTR CLOUDY    44  28  54 SE8       30.03R
ARBOR VITAE    CLOUDY    44  30  56 SE9       30.04R
WOODRUFF       CLOUDY    44  30  56 SE9       30.04R
RHINELANDER    PTCLDY    44  32  62 SE8       30.06R
EAGLE RIVER    CLOUDY    40  28  60 SE6       30.06S
LAND O LAKES   CLOUDY    41  30  65 SE7       30.07S
PHILLIPS       PTCLDY    45  31  58 SE5       30.01R
TOMAHAWK       PTCLDY    43  31  63 SE5       30.05R
MEDFORD        CLOUDY    46  33  60 SE5       30.02S
MERRILL        NOT AVBL
$$

WIZ029-030-035-036-043>047-200500-
CENTRAL WISCONSIN

CITY           SKY/WX    TMP DP  RH WIND       PRES   REMARKS
WAUSAU         MOCLDY    44  32  62 SE7       30.05R
MOSINEE        CLEAR     45  34  65 E8        30.07R
MARSHFIELD     PTCLDY    44  32  62 E5        30.03R
STEVENS POINT  CLOUDY    41  32  72 E6        30.07R
WAUPACA        CLOUDY    41  33  72 CALM      30.09S
WAUTOMA        PTCLDY    41  34  76 E5        30.08R
WISC RAPIDS    CLOUDY    45  35  68 E7        30.06R
CAMP DOUGLAS   PTCLDY    46  35  65 SE5       30.03R
$$

WIZ011>013-019>022-031-037>040-048>050-200500-
NORTHEAST WISCONSIN

CITY           SKY/WX    TMP DP  RH WIND       PRES   REMARKS
ANTIGO         CLOUDY    37  32  81 SE12      30.08S WCI  30
SHAWANO        CLOUDY    37  32  81 NE7       30.11S WCI  32
OCONTO         CLOUDY    29  27  90 CALM      30.13R
STURGEON BAY   PTCLDY    37  33  85 E7        30.14R WCI  32
GREEN BAY      PTCLDY    36  32  85 NE3       30.12R
MANITOWOC      CLOUDY    33  30  88 MISG      30.14R
APPLETON       PTCLDY    39  28  65 E5        30.09R
CLINTONVILLE   PTCLDY    39  30  70 E3        30.10R
OSHKOSH        PTCLDY    38  30  73 SE6       30.09R WCI  33
$$

WIZ032>034-041-042-053>061-200500-
SOUTHWEST WISCONSIN

CITY           SKY/WX    TMP DP  RH WIND       PRES   REMARKS
LA CROSSE      CLOUDY    51  37  58 SE7       29.97F
SPARTA         PTCLDY    41  34  77 CALM      30.02S
VIROQUA        CLOUDY    49  37  62 CALM      30.00S
BOSCOBEL       CLOUDY    56  36  47 CALM      30.02R
PRAIRIE DU CHI PTCLDY    51  35  54 E7        29.99S
PLATTEVILLE    CLOUDY    47  37  69 E10       30.03S
$$

WIZ056-057-062-063-064-067-068-200500-
SOUTH CENTRAL WISCONSIN

CITY           SKY/WX    TMP DP  RH WIND       PRES   REMARKS
REEDSBURG      CLOUDY    44  37  74 CALM      30.04R
BARABOO/DELLS  CLOUDY    50  36  58 SE7       30.04S
LONE ROCK      PTCLDY    44  36  73 E6        30.04R
MINERAL POINT  CLOUDY    50  36  57 SE9       30.04S
MADISON        CLOUDY    49  37  63 SE5       30.06R
MIDDLETON      CLOUDY    40  36  86 CALM      30.07R
WATERTOWN      PTCLDY    42  32  69 E7        30.08R
MONROE         MOCLDY    50  37  62 SE10      30.06R
JANESVILLE     CLOUDY    43  34  70 SE3       30.08R
$$

WIZ051-052-058>065-066-070>072-200500-
SOUTHEAST WISCONSIN

CITY           SKY/WX    TMP DP  RH WIND       PRES   REMARKS
MILWAUKEE      CLOUDY    39  32  76 NE3       30.12R
WAUKESHA         N/A     36  30  80 CALM      30.12R
MILWAUKEE/TIMM PTCLDY    37  30  75 CALM      30.12R
RACINE         PTCLDY    38  32  79 SE3       30.13R
KENOSHA        PTCLDY    34  29  82 E6        30.11R WCI  29
FOND DU LAC    CLOUDY    40  29  64 SE12      30.10R WCI  33
SHEBOYGAN      LGT RAIN  33  30  88 CALM      30.12R
WEST BEND      CLOUDY    32  30  93 CALM      30.11S
JUNEAU         PTCLDY    41  32  69 E9        30.09R
$$

LSZ147-162-200500-
LAKE SUPERIOR

STATION/POSITION TIME  TEMP    WIND        PRES    WAVE
                       AIR SEA DIR/SP/G            HT/PER
                 (UTC) (F)     (DEG/KT/KT) (MB)    (FT/S)
DEVILS ISLAND    0400   36      80/ 14/ 15 1017.1R
PORT WING        0330   34      40/ 12/ 16 1015.6S
SAXON HARBOR     0330   30     200/  2/  2 1015.2F
$$

LMZ867-665-643>646-200500-
LAKE MICHIGAN

STATION/POSITION TIME  TEMP    WIND        PRES    WAVE
                       AIR SEA DIR/SP/G            HT/PER
                 (UTC) (F)     (DEG/KT/KT) (MB)    (FT/S)
CHAMBERS ISLAND  0340   35      CALM  /  1 1020.3R
NORTHPORT PIER   0340   36     140/  2/  4 1020.7R
SISTER BAY       0305   39     110/ 11/ 14   N/A
ALGOMA LAKESHORE 0155             CALM       N/A
KEWAUNEE LAKESHO 0354   37      CALM  /  2 1019.9R
SHEBOYGAN LAKESH 0400   38        CALM     1020.4R
PORT WASHINGTON  0330   38     270/  2/  2 1021.0R
MILWAUKEE LAKESH 0400   41      20/  3/  4   N/A
KENOSHA   LAKESH 0400   37        CALM     1019.6
$$

TC  - TEMPERATURE IN CELSIUS
VSB - VISIBILITY IN STATUTE MILES
WCI - WIND CHILL INDEX
HX  - HEAT INDEX




USA.gov is the U.S. government's official web portal to all federal, state and local government web resources and services.